Change the Weather History Date:

Wednesday, October 26, 2011

  Actual Average Record
Temperature  
Mean Temperature 48 °F -  
Max Temperature 53 °F 59 °F 75 °F (1963)
Min Temperature 44 °F 45 °F 27 °F (2013)
Degree Days  
Heating Degree Days 16    
Moisture  
Dew Point 39 °F    
Average Humidity 70    
Maximum Humidity 93    
Minimum Humidity 58    
Precipitation  
Precipitation 0.00 in - - ()
Sea Level Pressure  
Sea Level Pressure 29.87 in    
Wind  
Wind Speed 4 mph (NNE)    
Max Wind Speed 8 mph    
Max Gust Speed -    
Visibility 10 miles    
Events Rain    
Averages and records for this station are not official NWS values.
T = Trace of Precipitation, MM = Missing Value Source: NWS Daily Summary

Daily Weather History Graph

Daily Weather History Graph

Search for Another Location

Airport or City:

Trip Planner

Search our weather history database for the weather conditions in past years. The results will help you decide how hot, cold, wet, or windy it might be!

Date:

Astronomy

Oct. 26, 2011 Rise Set
Actual Time 7:08 AM EDT 5:46 PM EDT
Civil Twilight 6:39 AM EDT 6:15 PM EDT
Nautical Twilight 6:07 AM EDT 6:47 PM EDT
Astronomical Twilight 5:35 AM EDT 7:19 PM EDT
Moon 6:52 AM EDT (10/26) 5:25 PM EDT (10/26)
Length of Visible Light 11h 35m
Length of Day
10h 38m
Waning Crescent, 0% of the Moon is Illuminated
Oct 26
Waning Crescent
Oct 26
New
Nov 2
First Quarter
Nov 10
Full
Nov 18
Last Quarter

Hourly Weather History & Observations

Time (EDT) Temp. Windchill Dew Point Humidity Pressure Visibility Wind Dir Wind Speed Gust Speed Precip Events Conditions
12:53 AM 45.0 °F 41.8 °F 35.1 °F 68% 30.01 in 10.0 mi WNW 5.8 mph - N/A   Clear
1:53 AM 44.1 °F 41.5 °F 35.1 °F 71% 30.01 in 10.0 mi WNW 4.6 mph - N/A   Clear
2:53 AM 46.9 °F - 36.0 °F 66% 30.00 in 10.0 mi WNW 8.1 mph - N/A   Overcast
3:53 AM 46.0 °F 42.5 °F 35.1 °F 66% 29.99 in 10.0 mi WNW 6.9 mph - N/A   Mostly Cloudy
4:53 AM 46.0 °F 42.5 °F 35.1 °F 66% 30.00 in 10.0 mi WNW 6.9 mph - N/A   Overcast
5:53 AM 46.9 °F - 36.0 °F 66% 29.97 in 10.0 mi Calm Calm - N/A   Overcast
6:53 AM 46.4 °F - 37.4 °F 71% 29.95 in 10.0 mi Calm Calm - N/A   Overcast
7:53 AM 46.9 °F - 37.9 °F 71% 29.96 in 10.0 mi Calm Calm - N/A   Overcast
8:53 AM 48.9 °F - 39.9 °F 71% 29.98 in 10.0 mi Calm Calm - N/A   Mostly Cloudy
9:53 AM 51.1 °F - 39.0 °F 63% 29.96 in 10.0 mi Calm Calm - N/A   Mostly Cloudy
10:53 AM 50.0 °F - 37.4 °F 62% 29.94 in 10.0 mi Calm Calm - N/A Rain Light Rain
11:53 AM 51.1 °F - 37.9 °F 61% 29.89 in 10.0 mi NE 3.5 mph - 0.00 in   Mostly Cloudy
12:53 PM 52.0 °F - 37.9 °F 59% 29.87 in 10.0 mi East 3.5 mph - N/A   Overcast
1:53 PM 52.0 °F - 37.9 °F 59% 29.83 in 10.0 mi ESE 4.6 mph - N/A   Overcast
2:53 PM 52.0 °F - 39.0 °F 61% 29.82 in 10.0 mi Calm Calm - N/A   Overcast
3:22 PM 53.6 °F - 39.2 °F 58% 29.81 in 10.0 mi Calm Calm - N/A   Overcast
3:53 PM 53.1 °F - 39.9 °F 61% 29.80 in 10.0 mi ENE 5.8 mph - N/A   Overcast
4:53 PM 51.1 °F - 39.9 °F 66% 29.80 in 10.0 mi NE 6.9 mph - N/A   Overcast
5:53 PM 51.1 °F - 39.9 °F 66% 29.81 in 10.0 mi Calm Calm - N/A   Overcast
6:06 PM 50.0 °F - 41.0 °F 71% 29.79 in 10.0 mi ENE 4.6 mph - N/A   Overcast
6:53 PM 50.0 °F - 41.0 °F 71% 29.78 in 10.0 mi ENE 3.5 mph - N/A   Overcast
7:53 PM 50.0 °F - 42.1 °F 74% 29.77 in 10.0 mi North 3.5 mph - N/A   Overcast
8:53 PM 48.9 °F - 43.0 °F 80% 29.77 in 10.0 mi NE 3.5 mph - 0.00 in Rain Light Rain
9:53 PM 48.0 °F - 45.0 °F 89% 29.78 in 10.0 mi Calm Calm - 0.00 in   Overcast
10:53 PM 48.0 °F - 45.0 °F 89% 29.77 in 10.0 mi North 4.6 mph - 0.00 in   Overcast
11:38 PM 48.2 °F - 46.4 °F 93% 29.77 in 10.0 mi Calm Calm - N/A   Overcast
11:53 PM 48.0 °F - 46.0 °F 93% 29.77 in 10.0 mi Calm Calm - N/A   Overcast